Weather Roundup
Issued by NWS

Home | Current Version | Previous Version | Graphics & Text | Print | Product List | Glossary Off
Versions: 1 2 3 4 5 6 7 8 9 10 11 12 13 14 15 16 17 18 19 20 21 22 23 24 25 26 27 28 29 30 31 32 33 34 35 36 37 38 39 40 41 42 43 44 45 46 47 48 49 50

433
NZUS93 KARX 190010
HRRWXR

CURRENT HOURLY OBSERVATIONS ACROSS
MUCH OF THE UPPER MISSISSIPPI VALLEY
NATIONAL WEATHER SERVICE LA CROSSE WI
600 PM CST WED JAN 18 2017


...SOUTHEAST MINNESOTA...


CITY           SKY/WX    TMP DP  RH WIND       PRES   REMARKS
ROCHESTER      CLOUDY    31  30  96 S13       29.92R WCI  21
ROCHESTER/MAYO FAIR      33  33 100 SE12G17   29.92S WCI  24
WINONA         CLOUDY    34  32  93 CALM      29.95S
AUSTIN         CLOUDY    32  30  93 S9        29.92S WCI  24
ALBERT LEA     CLEAR     36  34  93 S8        29.90S WCI  29
DODGE CENTER   CLOUDY    32  30  93 S12       29.90S WCI  23
PRESTON        CLOUDY    31  30  96 S17       29.93S FOG     WCI  19
OWATONNA       CLEAR     36  30  80 S13       29.88F WCI  27
FARIBAULT      CLEAR     36  32  87 S9        29.88S WCI  29
$$

...ELSEWHERE IN MINNESOTA...


CITY           SKY/WX    TMP DP  RH WIND       PRES   REMARKS
MINNEAPOLIS    CLEAR     37  30  75 S6        29.86S WCI  32
INTNL FALLS    CLOUDY    30  22  72 SE5       29.72S WCI  25
DULUTH         CLOUDY    36  26  67 SW9       29.79S WCI  29
RED WING       CLEAR     36  30  80 S3        29.89S
REDWOOD FALLS  CLEAR     35  30  82 S9        29.81S WCI  28
MANKATO        CLEAR     36  34  92 S12       29.86F WCI  28
WORTHINGTON    CLEAR     39  36  89 S16       29.82F WCI  30
FAIRMONT       CLEAR     37  35  92 S14       29.87S WCI  28
$$

...SOUTHWEST WISCONSIN...


CITY           SKY/WX    TMP DP  RH WIND       PRES   REMARKS
LA CROSSE      CLOUDY    36  30  79 S13       29.96S WCI  27
PRAIRIE DU CHI CLOUDY    34  30  87 S5        30.02R WCI  29
BOSCOBEL       CLOUDY    34  31  88 S8        30.02S WCI  27
LONE ROCK      CLOUDY    33  29  85 SW5       30.01R FOG     WCI  29
PLATTEVILLE    CLOUDY    33  33 100 S10       30.03R WCI  24
FORT MC COY    CLOUDY    33  31  91 S6        29.96S WCI  27
CAMP DOUGLAS   PTCLDY    36  30  80 S7        29.94R WCI  30
MAUSTON-NEW LI CLEAR     35  31  86 S7        29.94S WCI  29
VIROQUA        FAIR      32  31  96 S10       29.96R WCI  23
WIS DELLS      CLOUDY    32  30  92 S8        29.96F WCI  25
$$

...ELSEWHERE IN WISCONSIN...


CITY           SKY/WX    TMP DP  RH WIND       PRES   REMARKS
MILWAUKEE      CLOUDY    34  30  85 SW15G22   30.02R WCI  24
MADISON        CLOUDY    33  30  88 S10       30.00F WCI  25
GREEN BAY      CLEAR     35  32  88 SW9       29.92R WCI  28
EAU CLAIRE     CLEAR     34  30  85 S6        29.89R WCI  29
BLACK RVR FLS  FAIR      34  30  84 SW5       29.93R WCI  30
MEDFORD        CLEAR     33  29  85 SW3       29.87S
WAUSAU         CLEAR     35  30  82 SW5       29.88R WCI  31
WIS RAPIDS     CLEAR     34  30  85 SW9       29.93R WCI  27
MARSHFIELD     CLEAR     35  29  78 SW7       29.89R WCI  29
RICE LAKE      CLEAR     32  29  89 S7        29.88S WCI  26
$$

...NORTHEAST IOWA...


CITY           SKY/WX    TMP DP  RH WIND       PRES   REMARKS
WATERLOO       CLEAR     34  32  92 SE8       29.99S FOG     WCI  27
DUBUQUE        CLOUDY    33  32  96 SW13      30.02S FOG     WCI  24
DECORAH        CLOUDY    32  32 100 VRB6G14   29.97S FOG     WCI  26
MASON CITY     CLEAR     34  32  92 S8        29.94R WCI  27
CHARLES CITY   CLOUDY    34  34 100 S12       29.96S WCI  25
OELWEIN        CLOUDY    34  34 100 S12       30.00S FOG     WCI  25
$$

...ELSEWHERE IN IOWA...


CITY           SKY/WX    TMP DP  RH WIND       PRES   REMARKS
DES MOINES     CLEAR     39  34  82 S10       29.97S WCI  32
IOWA CITY      CLEAR     37  33  85 SE5       30.05R WCI  33
FORT DODGE     CLEAR     41  34  75 S7        29.94S
MARSHALLTOWN   CLEAR     39  36  89 S9        29.97S WCI  33
CEDAR RAPIDS   CLEAR     34  32  92 SE5       30.01S WCI  30
$$

...NORTHERN ILLINOIS...


CITY           SKY/WX    TMP DP  RH WIND       PRES   REMARKS
CHICAGO-OHARE  CLOUDY    35  31  85 SW8       30.08R WCI  29
CHICAGO-MIDWAY CLOUDY    35  31  85 SW10      30.10R WCI  27
MOLINE         CLEAR     38  33  82 CALM      30.05R
ROCKFORD       CLOUDY    35  31  85 S9        30.08R WCI  28
PEORIA         CLEAR     36  33  89 CALM      30.09S
$$

NOTE: "FAIR" INDICATES FEW OR NO CLOUDS BELOW 12,000 FEET WITH NO
SIGNIFICANT WEATHER AND/OR OBSTRUCTIONS TO VISIBILITY. WIND
SPEEDS ARE IN MILES-PER-HOUR.




USA.gov is the U.S. government's official web portal to all federal, state and local government web resources and services.